Flag for Brazil Weather past 2 weeks in São Paulo, São Paulo, Brazil

Now
61 °F

Sunny.


Feels Like: 61 °F
Forecast: 60 / 79 °F
Wind: 2 mph from Southeast

Location: Sao Paulo Airport

Current Time: Sep 2, 2014 at 6:52:10 AM

Latest Report: Sep 2, 2014 at 6:00 AM


Visibility: 10 mi

Pressure: 30.07 "Hg

Humidity: 72%

Dew point: 52 °F

Location of São PauloLocation

Historic Weather in São Paulo — Graph

°F

São Paulo temperature yesterday

Maximum temperature yesterday: 79 °F (at 3:00 PM)
Minimum temperature yesterday: 61 °F (at 12:00 AM)
Average temperature yesterday: 69 °F

Past Weeks' High & Low Weather Summary

 TemperatureHumidityPressure
High88 °F (Aug 25, 4:00 PM)83% (Aug 18, 6:00 AM)30.39 "Hg (Aug 18, 6:00 AM)
Low52 °F (Aug 28, 12:00 AM)13% (Aug 24, 3:00 PM)29.98 "Hg (Aug 25, 2:00 PM)
Average66 °F60%30.14 "Hg
* Reported Aug 18 6:00 AM — Sep 2 6:00 AM, São Paulo, Weather by CustomWeather, © 2014

Note: Actual official high and low records may vary slightly from our data, if they occured in-between our weather recording intervals... More about our weather records

Advertising

São Paulo weather history for previous 24 hours

 ConditionsComfort  
Time TempWeatherWind HumidityBarometerVisibility
6:00 AM
Sep 2
61 °FSunny.2 mph72%30.07 "Hg10 mi
5:00 AM61 °FClear.3 mph77%30.07 "Hg10 mi
4:00 AM61 °FClear.5 mph77%30.07 "Hg10 mi
3:00 AM61 °FClear.3 mph72%30.07 "Hg10 mi
2:00 AM63 °FClear.5 mph73%30.07 "Hg10 mi
1:00 AM64 °FClear.5 mph78%30.07 "Hg10 mi
12:00 AM64 °FClear.2 mph78%30.07 "Hg10 mi
11:00 PM
Sep 1
66 °FClear.5 mph78%30.07 "Hg10 mi
10:00 PM68 °FClear.2 mph73%30.07 "Hg10 mi
9:00 PM68 °FPassing clouds.3 mph73%30.04 "HgN/A
8:00 PM68 °FPassing clouds.3 mph73%30.04 "HgN/A
7:00 PM72 °FClear.7 mph65%30.01 "Hg10 mi
6:00 PM75 °FPassing clouds.9 mph50%30.01 "HgN/A
5:00 PM79 °FPassing clouds.6 mph42%29.98 "HgN/A
4:00 PM79 °FPassing clouds.10 mph42%29.98 "HgN/A
3:00 PM79 °FPassing clouds.10 mph42%29.98 "HgN/A
2:00 PM77 °FPassing clouds.15 mph44%30.01 "HgN/A
1:00 PM77 °FSunny.14 mph44%30.01 "Hg10 mi
12:00 PM73 °FSunny.18 mph53%30.04 "Hg10 mi
11:00 AM72 °FSunny.13 mph57%30.04 "Hg10 mi
10:00 AM68 °FSunny.10 mph64%30.04 "Hg10 mi
9:00 AM66 °FSunny.10 mph68%30.04 "Hg10 mi
8:00 AM64 °FScattered clouds.8 mph73%30.04 "HgN/A
7:00 AM63 °FSunny.10 mph77%30.01 "Hg10 mi
6:00 AM61 °FSunny.6 mph83%29.98 "Hg10 mi
Weather by CustomWeather, © 2014

See weather overviewHow to use our weather pages